Location: DarkSkies Observatory
(42.5924°N, 71.9747°W)
Time: 03:56:21
(UTC-04:00)

ISS - Visible Passes

Search period start: 25 June 2018 00:00
Search period end: 05 July 2018 00:00
Orbit: 402 x 407 km, 51.6° (Epoch: 25 June)

Date Brightness Start Highest point End Pass type
(mag) Time Alt. Az. Time Alt. Az. Time Alt. Az.
01 Jul -1.6 04:29:37 10° S 04:31:53 18° SE 04:34:10 10° E visible
03 Jul -2.9 04:20:53 11° SSW 04:23:48 40° SE 04:26:55 10° ENE visible
04 Jul -2.1 03:30:43 19° SSE 03:31:45 22° SE 03:34:22 10° E visible
